#timestamp,LO_Frequency,Hit,StdDev 
1666328415.6,286047005.2,N
1666328435.4,286047007.6,Y
1666328455.3,286047004.9,P
1666328475.1,286047006.0,P
1666328495.9,286047003.7,N
1666328515.7,286047001.7,N
1666328535.5,286047003.4,N
1666328555.4,286047005.7,Y
1666328575.2,286047002.6,P
1666328595.1,286046998.6,P
1666328596.0,286046998.6,N
1666328615.8,286046998.6,N
1666328635.6,286047001.1,N
1666328655.5,286046998.5,N
1666328675.3,286047000.8,N
1666328695.1,286047002.3,N
1666328715.9,286046998.6,N
1666328735.7,286046998.9,N
1666328755.6,286046999.3,N
1666328775.4,286046998.5,N
1666328795.2,286046997.6,N
1666328815.1,286046995.0,N
1666328816.0,286046995.0,N
1666328835.8,286046995.1,N
1666328855.6,286046996.3,N
1666328875.5,286046993.7,N
1666328895.3,286046995.8,N
1666328915.2,286046997.8,N
1666328935.9,286046996.3,N
1666328955.7,286046997.9,N
1666328975.6,286046997.5,N
1666328995.4,286046996.6,N
1666329015.2,286046996.6,N
1666329035.1,286046998.9,N
1666329036.0,286046998.9,N
1666329055.8,286046998.3,N
1666329075.7,286046997.8,N
1666329095.5,286046997.5,N
1666329115.3,286046998.0,N
1666329135.2,286046999.2,N
1666329155.0,286046998.3,N
1666329155.9,286046998.3,N
1666329175.7,286047000.6,N
1666329195.6,286046999.6,N
1666329215.4,286046997.6,N
1666329235.3,286047001.2,N
1666329255.1,286046998.1,N
1666329256.0,286046998.1,N
1666329275.8,286046996.5,N
1666329295.7,286046999.3,N
1666329315.5,286047000.8,N
1666329335.3,286046998.9,N
1666329355.2,286046997.3,N
1666329375.0,286046999.2,N
1666329375.9,286046999.2,N
1666329395.8,286046997.8,N
1666329415.6,286046999.3,N
1666329435.4,286046994.9,Y
1666329455.3,286046996.6,P
1666329475.1,286046999.6,N
1666329495.9,286046996.5,N
1666329515.7,286046998.3,N
1666329535.5,286047000.1,N
1666329555.4,286047002.3,N
1666329575.2,286047001.4,N
1666329595.0,286047002.6,N
1666329596.0,286047002.6,N
1666329615.8,286047001.6,N
1666329635.6,286047002.2,N
1666329655.5,286047003.7,N
1666329675.3,286047001.7,N
1666329695.2,286047001.3,N
1666329715.9,286047002.6,N
1666329735.7,286047000.4,N
1666329755.6,286047000.9,N
1666329775.4,286047000.4,N
1666329795.2,286046999.7,N
1666329815.1,286047001.6,N
1666329816.0,286047001.6,N
1666329835.8,286047002.2,N
1666329855.7,286047001.8,N
1666329875.5,286047001.7,N
1666329895.3,286047001.7,N
1666329915.2,286047002.5,N
1666329935.0,286047000.4,N
1666329935.9,286047000.4,N
1666329955.8,286047001.2,N
1666329975.6,286047000.3,N
1666329995.4,286047002.4,N
1666330015.3,286047001.7,N
1666330035.1,286047004.0,N
1666330055.8,286047004.3,Y
1666330075.7,286047004.3,P
1666330095.5,286047003.8,N
1666330115.4,286047002.4,N
1666330135.2,286047000.1,N
1666330155.0,286047002.5,N
1666330155.9,286047002.5,N
1666330175.8,286047002.3,N
1666330195.6,286047002.3,N
1666330215.4,286047002.8,N
1666330235.3,286047002.2,N
1666330255.1,286047002.2,N
1666330275.9,286046999.8,N
1666330295.7,286047002.4,N
1666330315.5,286047000.6,N
1666330335.4,286046996.9,N
1666330355.2,286046998.8,N
1666330375.0,286047001.2,N
1666330375.9,286047001.2,N
1666330395.8,286047001.0,N
1666330415.6,286046998.1,N
1666330435.5,286046998.2,N
1666330455.3,286046999.1,N
1666330475.1,286046999.6,N
1666330495.9,286046997.0,N
1666330515.7,286047001.1,N
1666330535.6,286047001.9,N
1666330555.4,286047000.8,N
1666330575.2,286046998.8,N
1666330595.1,286046997.7,N
1666330596.0,286046997.7,N
1666330615.8,286046996.5,N
1666330635.7,286046997.2,N
1666330655.5,286046999.4,N
1666330675.3,286046996.5,N
1666330695.2,286047000.8,N
1666330715.0,286047002.7,N
1666330745.9,286046998.6,E
1666330755.9,286047000.7,N
1666330775.7,286046999.9,P
1666330795.5,286047000.6,N
1666330815.4,286047000.3,N
1666330865.2,286047004.0,E
1666330875.2,286047002.8,N
1666330895.9,286046999.5,P
1666330915.7,286046996.9,N
1666330935.6,286047000.2,N
1666330955.4,286046998.5,N
1666330975.2,286046998.6,N
1666330995.1,286046994.9,N
1666330996.0,286046994.9,N
1666331045.9,286046999.6,E
1666331055.8,286046998.6,N
1666331075.6,286046998.5,P
1666331095.5,286047000.9,P
1666331115.3,286047000.8,N
1666331135.1,286046996.8,N
1666331155.9,286046998.5,N
1666331175.7,286046999.3,N
1666331195.5,286046999.2,N
1666331215.4,286046996.5,N
1666331235.2,286046999.4,N
1666331255.1,286046997.3,N
1666331256.0,286046997.3,N
1666331275.8,286046997.9,N
1666331295.6,286046997.9,N
1666331315.5,286046996.5,N
1666331335.3,286046996.8,N
1666331355.1,286046997.6,N
1666331375.0,286046997.2,N
1666331375.9,286046997.2,N
1666331395.8,286046995.7,Y
1666331415.6,286046999.2,P
1666331435.4,286046999.4,N
1666331455.3,286046998.3,P
1666331475.1,286046999.4,N
1666331495.8,286046998.7,N
1666331515.7,286046998.8,N
1666331535.5,286046998.3,Y
1666331555.4,286047000.5,P
1666331575.2,286046998.1,N
1666331595.0,286046998.3,N
1666331595.9,286046998.3,N
1666331615.8,286046998.2,N
1666331635.6,286047000.7,N
1666331655.4,286046998.7,N
1666331675.3,286047000.7,N
1666331695.1,286047000.7,N
1666331715.9,286047000.6,N
1666331735.7,286047000.1,N
1666331755.5,286047003.1,N
1666331775.4,286047003.8,N
1666331795.2,286047003.8,N
1666331815.1,286047002.3,N
1666331816.0,286047002.3,N
1666331835.8,286047002.6,N
1666331855.6,286047000.9,N
1666331875.5,286046999.7,N
1666331895.3,286047001.9,N
1666331915.2,286047002.1,N
1666331935.9,286047001.9,N
1666331955.7,286047004.2,N
1666331975.6,286047001.7,N
1666331995.4,286047001.9,N
